Location: Azul
(36.7830°S, 59.8500°W)
Time: 09:31:56
(UTC-03:00)

STRAND 1 - Visible Passes

Search period start: 22 October 2021 00:00
Search period end: 01 November 2021 00:00
Orbit: 769 x 780 km, 98.4° (Epoch: 21 October)

Date Brightness Start Highest point End Pass type
(mag) Time Alt. Az. Time Alt. Az. Time Alt. Az.
22 Oct ? 20:00:53 10° NNW 20:05:37 38° W 20:10:26 10° SSW visible
24 Oct ? 20:33:17 10° NW 20:36:51 19° W 20:40:26 10° SW visible
25 Oct ? 19:57:44 10° NNW 20:02:32 41° W 20:07:24 10° SSW visible
27 Oct ? 20:30:01 10° NW 20:33:44 20° W 20:37:30 10° SW visible
28 Oct ? 19:54:35 10° N 19:59:26 43° W 20:04:22 10° SSW visible
30 Oct ? 20:26:46 10° NW 20:30:38 21° W 20:34:32 10° SW visible
31 Oct ? 19:51:27 10° N 19:56:21 47° W 20:01:19 10° SSW visible
